User: anonymous   Login
Location: �perlecques
(50.8057°N, 2.1521°E)
Time: 16:46:50
(UTC+00:00)
Language:

DIWATA 2B (PO-101) - Orbit

View from above orbital plane
View from above orbital plane
View from above satellite
View from above satellite

Ground track
Ground track

The orbit data is extracted from the following two-line orbital elements,

1 43678U 18084H   21268.39619631  .00000567  00000-0  61955-4 0  9994
2 43678  97.9359  34.2633 0011403  82.0787 278.1721 14.91796546158334
Epoch (UTC): 25 September 2021 09:30:31
Eccentricity: 0.0011403
inclination: 97.9359°
perigee height: 584 km
apogee height: 600 km
right ascension of ascending node: 34.2633°
argument of perigee: 82.0787°
revolutions per day: 14.91796546
mean anomaly at epoch: 278.1721°
orbit number at epoch: 15833

The dashed part of the orbit path shows where the satellite is in the earth's shadow,  

DLR